SIRION PATHFINDER-2

Last updated on Thu Jul 03 2025 00:03:45 GMT+0000 (Coordinated Universal Time)

1 43759U 18099B 25183.57628909 .00003702 00000+0 23094-3 0 9992 2 43759 97.4757 235.9514 0011063 71.1278 289.1150 15.10076414359782
UTC large
Height (km)
Speed (km/s)
/
Latitude / Longitude
Inclination (degrees)
Orbital Period (minutes)
Azimuth
Elevation
Range (km)
Doppler Factor

Next 0 passes for location: London (51.5072 / 0.1276)

Sorry there are no passes over London.